When you browse on this site, cookies collect data to enhance your experience and personalize the content and advertising you see.
Visit our Privacy Policy to learn more. By continuing to use the site, you agree to this use of cookies and data.
  • In Czech Republic
  • List of Countries
  • For 7 days
  • Water Temperature
  • Satellite Maps
  • Weather Map
  • Weather Widgets
  • user-avatar
    Login

    Hourly Weather Naftalan

    Today, 25 June, Tuesday

    Time Temperature Precipitation Wind Pressure Humidity
    00:00 +29°C° 0 mm 2 mps 760 mmHg 51%
    01:00 +29°C° 0 mm 2 mps 759 mmHg 51%
    02:00 +28°C° 0 mm 2 mps 759 mmHg 51%
    03:00 +28°C° 0 mm 2 mps 759 mmHg 55%
    04:00 +28°C° 0 mm 2 mps 759 mmHg 52%
    05:00 +29°C° 0 mm 3 mps 759 mmHg 50%
    06:00 +30°C° 0 mm 3 mps 760 mmHg 47%
    07:00 +33°C° 0 mm 4 mps 760 mmHg 44%
    08:00 +34°C° 0 mm 4 mps 760 mmHg 40%
    09:00 +36°C° 0 mm 6 mps 760 mmHg 36%
    10:00 +36°C° 0 mm 6 mps 760 mmHg 37%
    11:00 +38°C° 0 mm 6 mps 760 mmHg 37%
    12:00 +38°C° 0 mm 6 mps 760 mmHg 37%
    13:00 +38°C° 0 mm 7 mps 760 mmHg 38%
    14:00 +36°C° 0 mm 7 mps 759 mmHg 38%
    15:00 +37°C° 0 mm 8 mps 759 mmHg 39%
    16:00 +35°C° 0 mm 7 mps 759 mmHg 40%
    17:00 +35°C° 0 mm 7 mps 759 mmHg 40%
    18:00 +34°C° 0 mm 6 mps 760 mmHg 40%
    19:00 +33°C° 0 mm 4 mps 760 mmHg 47%
    20:00 +30°C° 0 mm 3 mps 760 mmHg 53%
    21:00 +29°C° 0 mm 2 mps 760 mmHg 59%
    22:00 +29°C° 0 mm 2 mps 760 mmHg 61%
    23:00 +28°C° 0 mm 2 mps 760 mmHg 63%

    Tomorrow, 26 June, Wednesday

    Time Temperature Precipitation Wind Pressure Humidity
    00:00 +28°C° 0 mm 1 mps 760 mmHg 65%
    01:00 +28°C° 0 mm 1 mps 760 mmHg 67%
    02:00 +27°C° 0 mm 1 mps 760 mmHg 68%
    03:00 +27°C° 0 mm 1 mps 760 mmHg 70%
    04:00 +28°C° 0 mm 1 mps 760 mmHg 66%
    05:00 +29°C° 0 mm 2 mps 760 mmHg 62%
    06:00 +29°C° 0 mm 2 mps 760 mmHg 59%
    07:00 +31°C° 0 mm 3 mps 761 mmHg 53%
    08:00 +34°C° 0 mm 3 mps 761 mmHg 48%
    09:00 +36°C° 0 mm 4 mps 761 mmHg 42%
    10:00 +36°C° 0 mm 5 mps 761 mmHg 42%
    11:00 +36°C° 0 mm 6 mps 761 mmHg 42%
    12:00 +38°C° 0 mm 7 mps 761 mmHg 41%
    13:00 +36°C° 0 mm 7 mps 760 mmHg 43%
    14:00 +36°C° 0 mm 7 mps 760 mmHg 45%
    15:00 +35°C° 0 mm 8 mps 760 mmHg 47%
    16:00 +35°C° 0 mm 7 mps 760 mmHg 50%
    17:00 +34°C° 0 mm 7 mps 760 mmHg 52%
    18:00 +33°C° 0 mm 7 mps 760 mmHg 54%
    19:00 +32°C° 0 mm 6 mps 760 mmHg 58%
    20:00 +30°C° 0 mm 6 mps 760 mmHg 62%
    21:00 +29°C° 0 mm 5 mps 761 mmHg 65%
    22:00 +29°C° 0 mm 5 mps 761 mmHg 66%
    23:00 +28°C° 0 mm 4 mps 761 mmHg 67%

    Day after tomorrow, 27 June, Thursday

    Time Temperature Precipitation Wind Pressure Humidity
    00:00 +28°C° 0 mm 4 mps 760 mmHg 67%
    01:00 +28°C° 0 mm 4 mps 760 mmHg 68%
    02:00 +27°C° 0 mm 4 mps 761 mmHg 68%
    03:00 +27°C° 0 mm 3 mps 761 mmHg 69%
    04:00 +27°C° 0 mm 4 mps 761 mmHg 67%
    05:00 +28°C° 0 mm 4 mps 761 mmHg 65%
    06:00 +28°C° 0 mm 5 mps 761 mmHg 63%
    07:00 +29°C° 0 mm 6 mps 761 mmHg 58%
    08:00 +30°C° 0 mm 6 mps 761 mmHg 53%
    09:00 +32°C° 0 mm 7 mps 761 mmHg 48%
    10:00 +32°C° 0 mm 7 mps 761 mmHg 45%
    11:00 +33°C° 0 mm 7 mps 760 mmHg 42%
    12:00 +33°C° 0 mm 7 mps 760 mmHg 40%
    13:00 +33°C° 0 mm 6 mps 760 mmHg 40%
    14:00 +33°C° 0 mm 6 mps 759 mmHg 40%
    15:00 +33°C° 0 mm 5 mps 759 mmHg 39%
    16:00 +32°C° 0 mm 5 mps 759 mmHg 42%
    17:00 +32°C° 0 mm 5 mps 759 mmHg 45%
    18:00 +30°C° 0 mm 5 mps 758 mmHg 48%
    19:00 +29°C° 0 mm 4 mps 758 mmHg 50%
    20:00 +28°C° 0 mm 4 mps 759 mmHg 53%
    21:00 +27°C° 0 mm 3 mps 759 mmHg 56%
    22:00 +27°C° 0 mm 2 mps 758 mmHg 56%
    23:00 +26°C° 0 mm 2 mps 758 mmHg 56%

    28 June, Friday

    Time Temperature Precipitation Wind Pressure Humidity
    00:00 +26°C° 0 mm 2 mps 758 mmHg 57%
    01:00 +26°C° 0 mm 1 mps 757 mmHg 58%
    02:00 +26°C° 0 mm 1 mps 757 mmHg 59%
    03:00 +25°C° 0 mm 1 mps 757 mmHg 60%
    04:00 +26°C° 0 mm 1 mps 757 mmHg 57%
    05:00 +26°C° 0 mm 1 mps 756 mmHg 55%
    06:00 +27°C° 0 mm 1 mps 756 mmHg 53%
    07:00 +28°C° 0.1 mm 1 mps 756 mmHg 48%
    08:00 +29°C° 0.1 mm 1 mps 756 mmHg 43%
    09:00 +30°C° 0.1 mm 1 mps 755 mmHg 38%
    10:00 +31°C° 0 mm 2 mps 755 mmHg 37%
    11:00 +33°C° 0 mm 3 mps 754 mmHg 36%
    12:00 +33°C° 0 mm 4 mps 754 mmHg 35%
    13:00 +33°C° 0 mm 4 mps 753 mmHg 35%
    14:00 +33°C° 0 mm 4 mps 753 mmHg 35%
    15:00 +33°C° 0 mm 4 mps 752 mmHg 35%
    16:00 +32°C° 0 mm 4 mps 752 mmHg 39%
    17:00 +30°C° 0 mm 4 mps 752 mmHg 42%
    18:00 +30°C° 0 mm 3 mps 752 mmHg 46%
    19:00 +29°C° 0 mm 3 mps 752 mmHg 50%
    20:00 +28°C° 0 mm 2 mps 753 mmHg 55%
    21:00 +27°C° 0 mm 2 mps 753 mmHg 60%
    22:00 +27°C° 0 mm 2 mps 753 mmHg 60%
    23:00 +26°C° 0 mm 2 mps 753 mmHg 61%

    29 June, Saturday

    Time Temperature Precipitation Wind Pressure Humidity
    00:00 +26°C° 0 mm 2 mps 752 mmHg 62%
    01:00 +26°C° 0 mm 1 mps 752 mmHg 61%
    02:00 +26°C° 0 mm 1 mps 752 mmHg 60%
    03:00 +25°C° 0 mm 1 mps 752 mmHg 59%
    04:00 +26°C° 0 mm 1 mps 752 mmHg 56%
    05:00 +27°C° 0 mm 1 mps 752 mmHg 52%
    06:00 +26°C° 0 mm 0 mps 752 mmHg 48%
    07:00 +29°C° 0 mm 1 mps 752 mmHg 43%
    08:00 +31°C° 0 mm 1 mps 752 mmHg 37%
    09:00 +33°C° 0 mm 1 mps 752 mmHg 32%
    10:00 +34°C° 0 mm 2 mps 752 mmHg 33%
    11:00 +35°C° 0 mm 4 mps 752 mmHg 34%
    12:00 +35°C° 0 mm 5 mps 752 mmHg 36%
    13:00 +35°C° 0 mm 5 mps 752 mmHg 38%
    14:00 +35°C° 0 mm 6 mps 751 mmHg 40%
    15:00 +34°C° 0 mm 6 mps 751 mmHg 42%
    16:00 +33°C° 0 mm 5 mps 751 mmHg 46%
    17:00 +32°C° 0 mm 5 mps 751 mmHg 51%
    18:00 +30°C° 0 mm 4 mps 751 mmHg 55%
    19:00 +30°C° 0 mm 4 mps 752 mmHg 59%
    20:00 +29°C° 0 mm 3 mps 753 mmHg 63%
    21:00 +28°C° 0 mm 2 mps 753 mmHg 67%
    22:00 +28°C° 0 mm 3 mps 753 mmHg 66%
    23:00 +28°C° 0 mm 3 mps 754 mmHg 65%

    30 June, Sunday

    Time Temperature Precipitation Wind Pressure Humidity
    00:00 +28°C° 0 mm 3 mps 754 mmHg 65%
    01:00 +27°C° 0 mm 5 mps 754 mmHg 66%
    02:00 +27°C° 0 mm 6 mps 754 mmHg 67%
    03:00 +27°C° 0 mm 8 mps 755 mmHg 68%
    04:00 +27°C° 0 mm 7 mps 755 mmHg 65%
    05:00 +28°C° 0 mm 6 mps 755 mmHg 63%
    06:00 +28°C° 0 mm 5 mps 756 mmHg 60%
    07:00 +29°C° 0 mm 5 mps 756 mmHg 58%
    08:00 +29°C° 0 mm 5 mps 756 mmHg 56%
    09:00 +30°C° 0 mm 6 mps 756 mmHg 54%
    10:00 +30°C° 0 mm 6 mps 755 mmHg 54%
    11:00 +30°C° 0 mm 6 mps 755 mmHg 55%
    12:00 +32°C° 0 mm 6 mps 755 mmHg 55%
    13:00 +30°C° 0 mm 6 mps 755 mmHg 56%
    14:00 +30°C° 0 mm 6 mps 754 mmHg 57%
    15:00 +30°C° 0 mm 6 mps 754 mmHg 58%
    16:00 +30°C° 0 mm 6 mps 754 mmHg 60%
    17:00 +29°C° 0 mm 5 mps 755 mmHg 63%
    18:00 +28°C° 0 mm 5 mps 755 mmHg 66%
    19:00 +28°C° 0.1 mm 6 mps 755 mmHg 69%
    20:00 +27°C° 0.1 mm 7 mps 756 mmHg 72%
    21:00 +26°C° 0.1 mm 9 mps 757 mmHg 75%
    22:00 +26°C° 0.1 mm 9 mps 757 mmHg 73%
    23:00 +26°C° 0.1 mm 9 mps 757 mmHg 71%
    Show more